TimeEST,TemperatureF,Dew PointF,Humidity,Sea Level PressureIn,VisibilityMPH,Wind Direction,Wind SpeedMPH,Gust SpeedMPH,PrecipitationIn,Events,Conditions,WindDirDegrees,DateUTC
12:15 AM,14.5,9.5,80,30.04,10.0,North,4.6,-,N/A,,Overcast,350,2012-12-27 05:15:00
12:35 AM,14.5,9.5,80,30.03,10.0,NNW,3.5,-,N/A,,Overcast,340,2012-12-27 05:35:00
12:55 AM,14.5,9.5,80,30.02,7.0,North,5.8,-,N/A,Snow,Light Snow,350,2012-12-27 05:55:00
1:15 AM,14.5,10.4,84,30.00,1.2,North,5.8,-,N/A,Snow,Light Snow,350,2012-12-27 06:15:00
1:35 AM,14.5,11.1,86,30.01,1.0,North,5.8,-,N/A,Snow,Light Snow,10,2012-12-27 06:35:00
1:55 AM,14.5,11.3,87,30.00,1.2,North,4.6,-,N/A,Snow,Light Snow,10,2012-12-27 06:55:00
2:15 AM,14.5,11.3,87,29.98,0.8,North,4.6,-,N/A,Snow,Snow,360,2012-12-27 07:15:00
2:35 AM,14.5,11.7,88,29.96,0.8,North,6.9,-,N/A,Snow,Snow,360,2012-12-27 07:35:00
2:55 AM,14.5,11.8,89,29.95,1.0,North,5.8,-,N/A,Snow,Snow,350,2012-12-27 07:55:00
3:15 AM,14.9,12.4,90,29.93,0.8,North,6.9,-,N/A,Snow,Snow,360,2012-12-27 08:15:00
3:35 AM,15.8,13.3,90,29.91,1.0,North,8.1,-,N/A,Snow,Snow,360,2012-12-27 08:35:00
3:55 AM,17.1,14.5,90,29.89,1.2,North,10.4,-,N/A,Snow,Light Snow,10,2012-12-27 08:55:00
4:15 AM,17.1,14.5,90,29.88,0.8,North,10.4,-,N/A,Snow,Snow,10,2012-12-27 09:15:00
4:35 AM,17.1,14.7,91,29.86,1.0,North,9.2,-,N/A,Snow,Light Snow,360,2012-12-27 09:35:00
4:55 AM,17.6,15.4,91,29.84,1.8,North,11.5,-,N/A,Snow,Light Snow,10,2012-12-27 09:55:00
5:35 AM,18.5,16.0,90,29.83,1.0,North,10.4,16.1,N/A,Snow,Snow,360,2012-12-27 10:35:00
5:55 AM,19.4,16.9,90,29.82,1.2,North,12.7,19.6,N/A,Snow,Light Snow,360,2012-12-27 10:55:00
6:15 AM,19.4,17.2,91,29.81,2.0,North,12.7,18.4,N/A,Snow,Light Snow,360,2012-12-27 11:15:00
6:55 AM,19.6,17.4,91,29.78,1.5,North,12.7,19.6,N/A,Snow,Light Snow,360,2012-12-27 11:55:00
7:15 AM,19.8,17.2,90,29.76,2.5,North,15.0,19.6,N/A,Snow,Light Snow,360,2012-12-27 12:15:00
7:35 AM,19.9,17.4,90,29.75,2.5,North,12.7,25.3,N/A,Snow,Light Snow,360,2012-12-27 12:35:00
7:55 AM,19.9,17.2,89,29.75,1.2,North,15.0,21.9,N/A,Snow,Light Snow,350,2012-12-27 12:55:00
8:35 AM,20.1,17.6,90,29.75,1.2,North,16.1,21.9,N/A,Snow,Light Snow,360,2012-12-27 13:35:00
8:55 AM,20.3,17.6,89,29.74,1.2,North,15.0,20.7,N/A,Snow,Light Snow,360,2012-12-27 13:55:00
9:15 AM,20.3,17.8,90,29.74,0.5,North,18.4,23.0,N/A,Snow,Snow,360,2012-12-27 14:15:00
9:55 AM,20.1,17.8,91,29.74,1.0,North,13.8,21.9,N/A,Snow,Light Snow,350,2012-12-27 14:55:00
10:15 AM,20.3,18.1,91,29.75,0.2,North,17.3,23.0,N/A,Snow,Heavy Snow,350,2012-12-27 15:15:00
10:35 AM,20.3,18.3,92,29.75,-9999.0,North,15.0,23.0,N/A,,Overcast,360,2012-12-27 15:35:00
10:55 AM,20.3,18.3,92,29.74,-9999.0,North,16.1,25.3,N/A,,Overcast,360,2012-12-27 15:55:00
11:15 AM,20.1,18.1,92,29.73,-9999.0,North,15.0,23.0,N/A,,Overcast,360,2012-12-27 16:15:00
11:35 AM,20.1,18.0,91,29.72,-9999.0,North,15.0,24.2,N/A,,Overcast,360,2012-12-27 16:35:00
11:55 AM,19.9,17.6,91,29.72,-9999.0,North,17.3,25.3,N/A,,Overcast,360,2012-12-27 16:55:00
12:15 PM,19.9,17.6,91,29.71,-9999.0,North,18.4,25.3,N/A,,Overcast,360,2012-12-27 17:15:00
12:35 PM,20.1,17.6,90,29.71,-9999.0,North,20.7,26.5,N/A,,Overcast,10,2012-12-27 17:35:00
12:55 PM,20.1,17.2,89,29.70,-9999.0,NNE,19.6,29.9,N/A,,Overcast,20,2012-12-27 17:55:00
1:15 PM,20.1,17.2,89,29.69,-9999.0,NNE,19.6,27.6,N/A,,Overcast,20,2012-12-27 18:15:00
1:35 PM,20.3,17.2,88,29.69,-9999.0,NNE,15.0,25.3,N/A,,Overcast,20,2012-12-27 18:35:00
1:55 PM,20.3,17.1,87,29.69,-9999.0,NNE,16.1,23.0,N/A,,Overcast,20,2012-12-27 18:55:00
2:15 PM,20.3,17.2,88,29.69,-9999.0,NNE,13.8,25.3,N/A,,Overcast,20,2012-12-27 19:15:00
2:35 PM,20.3,17.1,87,29.69,-9999.0,NNE,13.8,20.7,N/A,,Overcast,20,2012-12-27 19:35:00
2:55 PM,20.5,17.4,88,29.69,-9999.0,NNE,12.7,18.4,N/A,,Overcast,20,2012-12-27 19:55:00
3:15 PM,20.3,17.2,88,29.69,-9999.0,North,11.5,19.6,N/A,,Overcast,10,2012-12-27 20:15:00
3:35 PM,20.3,17.2,88,29.70,-9999.0,North,8.1,16.1,N/A,,Overcast,360,2012-12-27 20:35:00
3:55 PM,20.3,17.2,88,29.70,-9999.0,North,10.4,16.1,N/A,,Overcast,350,2012-12-27 20:55:00
4:15 PM,20.1,17.1,88,29.70,-9999.0,North,10.4,-,N/A,,Unknown,10,2012-12-27 21:15:00
4:35 PM,20.1,17.1,88,29.71,-9999.0,North,10.4,17.3,N/A,,Unknown,360,2012-12-27 21:35:00
4:55 PM,20.1,16.7,87,29.71,-9999.0,North,9.2,-,N/A,,Unknown,360,2012-12-27 21:55:00
5:15 PM,20.1,16.7,87,29.72,-9999.0,North,10.4,17.3,N/A,,Unknown,360,2012-12-27 22:15:00
5:35 PM,19.9,16.5,87,29.72,-9999.0,North,10.4,-,N/A,,Unknown,350,2012-12-27 22:35:00
5:55 PM,19.8,16.3,87,29.72,-9999.0,North,11.5,17.3,N/A,,Unknown,350,2012-12-27 22:55:00
6:15 PM,19.9,16.3,86,29.73,-9999.0,North,11.5,-,N/A,,Overcast,350,2012-12-27 23:15:00
6:35 PM,19.9,16.3,86,29.73,-9999.0,North,9.2,-,N/A,,Overcast,350,2012-12-27 23:35:00
6:55 PM,19.8,16.2,86,29.74,-9999.0,North,11.5,-,N/A,,Unknown,350,2012-12-27 23:55:00
7:15 PM,19.8,15.8,85,29.74,-9999.0,North,10.4,-,N/A,,Unknown,360,2012-12-28 00:15:00
7:35 PM,19.6,15.8,85,29.75,10.0,North,6.9,17.3,N/A,,Overcast,360,2012-12-28 00:35:00
7:55 PM,19.4,15.8,86,29.76,10.0,North,10.4,17.3,N/A,,Overcast,360,2012-12-28 00:55:00
8:15 PM,19.6,16.5,88,29.76,7.0,North,9.2,16.1,N/A,,Overcast,360,2012-12-28 01:15:00
8:35 PM,19.8,16.7,88,29.76,7.0,North,10.4,-,N/A,,Overcast,360,2012-12-28 01:35:00
8:55 PM,19.9,16.9,88,29.77,10.0,North,12.7,17.3,N/A,,Overcast,360,2012-12-28 01:55:00
9:15 PM,20.1,17.1,88,29.77,10.0,North,11.5,16.1,N/A,,Overcast,360,2012-12-28 02:15:00
9:35 PM,20.3,17.4,89,29.78,10.0,North,13.8,19.6,N/A,,Overcast,360,2012-12-28 02:35:00
9:55 PM,20.8,17.6,87,29.78,10.0,North,11.5,16.1,N/A,,Overcast,360,2012-12-28 02:55:00
10:15 PM,21.2,18.1,88,29.78,10.0,North,11.5,-,N/A,,Overcast,360,2012-12-28 03:15:00
10:35 PM,22.1,18.5,86,29.79,10.0,North,10.4,-,N/A,,Overcast,350,2012-12-28 03:35:00
10:55 PM,22.1,18.9,87,29.80,10.0,North,8.1,-,N/A,,Overcast,350,2012-12-28 03:55:00
11:15 PM,22.1,19.4,89,29.80,10.0,North,6.9,-,N/A,,Overcast,350,2012-12-28 04:15:00
11:35 PM,22.1,19.8,91,29.81,7.0,North,8.1,-,N/A,,Overcast,350,2012-12-28 04:35:00
11:55 PM,22.6,20.7,92,29.82,3.0,North,8.1,-,N/A,,Overcast,350,2012-12-28 04:55:00